Location: Newark
(12.4436°N, 0.6167°W)
Time: 21:15:24
(UTC+00:00)

Vanguard 1 - Pass Details

Date: 16 December 2019
Orbit: 651 x 3832 km, 34.2° (Epoch: 18 January)

Event Time Altitude Azimuth Distance (km) Brightness Sun altitude
Rises 00:06:13 0° 230° (SW) 5,425 - -79.0°
Reaches altitude 10° 00:09:08 10° 229° (SW) 4,755 - -78.8°
Maximum altitude 00:24:13 81° 142° (SE) 3,242 - -77.5°
Exits shadow 00:42:34 21° 58° (ENE) 5,975 13.9 -74.8°
Drops below altitude 10° 00:47:46 10° 58° (ENE) 6,934 14.3 -73.9°
Sets 00:53:07 0° 57° (ENE) 7,902 14.7 -73.0°
